RH
27 27 28 32 38 42 45 46 45 46 45 44 46 50 53 55 56 58 57 54 51 51 53 56 56 55 54 55 56 56 57 57 58 59 61 61 62 61 60 59 57 56 56 58 60 63 66 70 74 77 81 84 86 87 87 87 85 84 82 81 80 79 79 79 79 79 80 80 80 79 78 77 76 74 73 71 69 68 67 65 63 61 59 58 57
29 29 29 33 40 46 49 50 50 51 52 50 50 52 56 58 59 60 60 58 55 54 55 58 60 60 59 59 60 60 60 60 59 59 60 61 62 62 63 63 63 62 60 59 58 57 58 58 60 61 64 67 71 74 78 80 82 84 85 85 86 86 87 87 88 88 88 88 88 87 86 85 83 80 78 77 74 72 72 71 70 69 68 67 66
32 31 31 33 38 44 49 52 53 56 58 57 56 57 59 60 61 62 63 63 62 60 59 61 63 64 63 62 62 62 62 63 63 63 64 64 64 64 63 63 63 63 63 63 63 62 62 61 61 60 60 60 61 61 62 63 64 66 67 69 71 73 75 77 79 81 83 85 85 86 85 84 84 82 80 79 77 75 73 70 68 65 63 61 58
35 35 34 34 36 42 48 52 55 59 62 62 61 62 64 65 65 66 66 66 66 65 63 61 62 64 64 63 62 62 62 62 62 63 64 65 66 67 67 68 67 67 66 65 65 65 65 65 65 65 65 65 64 63 62 61 60 60 59 59 59 59 59 59 60 61 62 63 64 65 65 65 65 65 63 62 61 59 58 56 54 51 48 46 45
39 39 38 37 38 43 49 53 57 61 65 66 66 67 68 69 70 69 69 68 67 67 65 63 62 63 64 64 64 64 64 64 64 64 63 64 64 65 67 68 69 70 71 71 71 70 69 68 67 67 66 67 67 67 66 66 65 65 65 64 63 62 61 60 58 57 57 56 55 55 54 54 53 53 52 51 49 47 47 47 48 49 48 46 45
42 43 43 41 42 46 54 59 62 65 68 70 70 70 72 73 73 72 71 70 69 68 66 64 62 62 63 65 66 66 66 67 67 67 67 67 67 66 67 67 68 69 70 71 72 73 73 73 72 71 70 69 69 69 69 69 69 69 68 68 67 67 66 64 63 61 60 59 58 56 55 53 52 51 51 50 50 48 46 44 44 46 48 49 48
45 46 47 46 45 49 58 66 71 73 75 75 75 74 74 75 76 76 76 75 74 71 68 66 65 65 66 67 69 69 68 68 68 69 70 70 70 70 71 71 71 70 70 69 69 70 71 73 74 75 75 74 74 73 72 71 71 70 69 68 67 67 66 65 64 62 61 60 58 57 55 53 51 49 48 48 48 48 47 46 43 42 42 43 45
47 48 49 50 49 49 56 67 76 81 83 85 83 79 76 75 75 77 77 77 75 73 72 70 68 69 70 69 70 71 70 70 71 71 72 72 73 73 73 74 74 74 73 72 71 70 69 69 70 71 72 73 74 75 75 74 73 72 71 69 68 67 66 65 64 62 61 59 58 56 55 54 52 51 49 49 49 49 49 50 49 47 45 43 43
49 50 51 53 53 52 54 63 74 82 87 90 91 87 82 77 74 74 74 73 72 72 72 71 70 70 70 70 71 72 72 73 73 73 74 75 75 75 75 74 74 74 74 73 73 72 72 71 70 69 69 69 69 70 70 71 72 72 71 70 69 68 66 65 63 62 60 59 57 55 55 54 53 52 51 50 51 51 52 52 52 51 50 47 44
51 53 54 55 56 56 57 60 69 79 87 91 94 94 90 84 79 75 74 72 71 71 72 73 72 72 73 73 74 75 76 76 76 76 77 78 78 78 77 76 75 74 73 72 71 70 70 70 69 69 68 68 67 66 66 66 67 67 67 67 67 66 65 64 62 61 60 58 56 54 53 52 52 52 52 51 51 52 53 54 53 52 51 49 46
55 57 58 58 59 60 60 61 65 72 81 89 94 96 94 90 85 80 77 75 73 74 75 76 77 77 79 80 80 81 81 80 80 79 79 81 81 81 79 78 76 74 71 69 68 66 66 65 65 65 64 64 64 64 64 64 64 64 64 63 62 61 61 60 59 58 57 56 55 54 53 52 52 53 54 54 54 54 54 55 55 54 52 50 48
59 61 63 63 63 64 64 65 65 67 73 80 87 91 91 90 88 84 81 78 76 75 76 77 79 81 83 85 85 85 85 84 84 83 82 82 82 80 79 76 73 70 67 65 63 61 60 60 59 58 57 57 56 56 58 59 60 60 60 60 59 58 56 55 54 53 52 51 51 51 52 52 51 52 54 54 53 52 51 50 50 50 49 47 46
64 66 68 68 69 70 70 69 70 70 71 74 79 83 85 87 86 84 82 79 77 76 76 78 80 82 84 86 86 86 86 85 84 83 81 79 77 75 73 70 67 63 59 57 55 54 53 53 52 51 50 49 49 49 50 51 52 52 53 53 53 52 50 49 48 47 46 45 45 45 46 47 48 47 47 47 46 44 43 41 40 39 39 37 37
70 73 75 75 76 77 78 78 78 76 76 78 80 81 83 84 84 83 82 80 79 79 79 81 82 83 83 84 85 84 84 83 82 79 76 72 67 65 64 60 57 54 51 48 46 44 43 43 42 41 40 39 39 40 41 42 42 42 42 41 41 40 39 38 37 36 35 35 35 35 36 37 37 37 35 34 33 32 30 29 27 25 24 23 22
78 81 83 83 82 83 84 86 87 85 84 84 84 84 85 86 86 86 86 86 85 84 83 83 84 85 84 84 83 82 80 78 76 72 68 63 57 53 50 47 45 43 41 38 36 34 32 32 31 30 29 28 28 29 30 31 32 32 32 31 31 30 29 28 27 26 26 26 27 27 26 25 24 24 23 21 20 19 18 17 16 15 15 14 13
83 87 88 89 88 88 88 89 92 93 92 92 91 91 91 91 92 92 91 90 88 87 86 84 84 84 84 81 78 75 72 69 66 62 58 53 47 40 36 34 33 32 30 28 27 25 24 23 23 23 22 22 21 22 22 23 24 24 24 23 22 22 21 20 19 20 20 20 20 19 17 16 16 15 15 14 13 12 11 11 11 11 12 11 11
89 91 93 94 93 92 92 92 94 96 98 98 99 99 99 99 98 98 96 93 92 92 91 87 83 80 77 72 68 65 62 59 55 50 45 41 35 29 27 26 25 24 24 23 22 22 21 21 21 21 20 20 19 19 18 18 19 18 18 18 17 16 16 16 16 16 16 16 15 14 14 13 13 12 11 11 11 11 11 11 11 12 11 11 11
96 94 95 97 96 96 97 97 98 100 101 102 102 101 101 102 103 103 102 100 99 97 94 88 81 74 69 63 57 53 49 46 41 37 32 29 26 23 22 23 22 22 21 21 21 22 22 22 22 22 21 20 19 19 18 18 18 17 17 16 16 16 16 16 16 15 15 15 15 14 14 13 12 11 10 11 11 11 12 12 12 12 11 10 11
102 98 97 97 98 98 98 100 102 103 103 103 103 102 101 104 110 113 111 108 104 98 92 86 79 73 67 61 53 45 39 34 29 26 24 23 23 22 22 22 22 21 21 21 21 22 22 22 22 22 22 21 20 20 20 19 19 18 18 17 17 17 16 16 16 16 15 15 14 14 14 13 11 10 10 10 11 11 11 11 11 11 10 9 10
104 101 99 98 97 97 97 98 100 101 103 106 108 108 107 107 110 112 110 108 103 97 90 85 79 75 69 62 52 42 34 28 24 22 22 22 23 23 22 22 22 21 21 21 21 21 20 20 21 21 21 20 20 20 19 19 18 18 18 17 16 16 15 15 15 15 14 13 11 11 12 10 9 9 9 10 10 10 9 9 9 9 9 9 9
99 97 96 95 94 95 96 96 97 99 104 108 111 113 110 106 107 109 107 103 100 96 90 83 78 73 65 57 48 38 30 26 23 22 21 21 22 23 22 22 22 21 20 20 20 19 19 19 19 19 18 18 17 18 17 17 16 16 16 15 15 14 14 13 13 13 12 10 9 10 9 8 8 8 9 9 9 9 8 8 8 8 8 8 8
92 90 89 88 89 91 94 96 97 100 103 106 108 108 106 104 105 106 104 99 96 94 88 79 72 65 57 49 41 33 28 25 23 22 21 20 21 21 20 20 20 20 19 18 17 17 16 16 16 16 16 15 15 15 15 15 14 14 14 13 13 13 12 12 12 11 10 9 9 9 9 8 8 9 9 9 9 8 8 8 8 8 7 8 8
85 83 82 81 81 84 88 91 95 97 99 101 101 101 99 98 97 97 97 95 93 89 82 72 64 56 48 40 34 30 28 25 24 22 21 19 19 18 17 17 17 17 17 16 16 15 14 14 14 14 14 14 14 14 14 14 14 14 14 13 13 12 12 12 12 11 10 9 9 9 9 9 9 9 9 9 9 8 8 8 8 8 8 8 9
74 73 71 70 71 73 77 81 86 89 91 91 91 90 90 90 90 91 91 90 88 82 74 64 55 47 40 34 30 28 27 25 23 21 19 18 17 16 16 16 15 15 15 15 15 15 14 14 14 14 14 14 14 15 15 15 15 15 15 14 13 13 13 13 12 11 9 8 9 9 10 10 10 9 9 9 9 8 8 9 9 8 8 8 9
62 61 59 58 58 60 63 67 71 73 75 76 76 76 77 79 82 82 80 77 74 70 63 55 46 40 35 31 29 27 25 24 21 19 17 16 15 15 15 15 15 14 14 14 15 15 15 14 14 14 14 14 15 15 15 15 15 15 15 14 14 13 13 13 13 11 9 8 9 10 10 10 10 9 9 9 9 9 8 9 9 9 8 9 9
52 49 48 47 46 47 49 52 54 57 60 62 65 67 68 69 70 68 65 61 58 55 51 44 38 34 31 29 28 26 24 22 19 17 16 15 14 14 14 15 15 15 14 14 14 15 15 15 14 14 14 15 15 15 15 15 15 15 14 14 14 13 14 14 12 10 9 9 10 11 11 10 10 10 10 10 10 9 9 9 9 9 9 9 10
44 41 39 38 37 37 38 40 43 47 50 54 57 58 57 56 56 55 52 49 46 43 41 37 34 32 29 28 27 24 21 19 17 16 15 14 13 13 13 14 15 15 15 14 14 14 14 14 14 14 14 14 15 15 15 14 14 14 14 13 13 13 14 13 12 10 9 10 12 12 10 10 10 10 10 10 10 9 9 9 9 10 10 10 11
36 34 33 32 32 32 33 35 38 41 43 45 46 46 46 45 44 43 41 39 38 36 34 33 31 30 28 26 24 21 19 17 16 15 15 14 14 13 13 14 14 15 15 15 14 14 14 13 13 13 14 15 15 15 15 15 14 14 13 13 13 13 14 13 12 10 10 13 13 11 10 10 11 11 11 11 10 10 9 9 10 10 11 12 13
29 29 30 30 30 31 32 33 35 37 38 39 39 38 38 37 36 35 33 31 31 30 30 29 28 26 25 23 20 18 16 15 14 15 15 15 15 14 14 14 14 14 15 15 14 14 14 13 13 13 14 15 15 15 15 15 14 13 13 13 13 13 14 13 11 10 13 14 13 11 10 10 11 12 11 11 11 11 10 10 11 12 13 14 14
26 26 28 28 30 31 31 31 32 32 33 34 33 32 31 30 29 29 27 26 25 25 24 23 22 20 19 18 16 15 15 14 14 14 14 15 15 15 15 15 15 14 14 14 14 14 14 13 14 14 15 15 16 16 16 15 14 13 13 12 13 13 13 12 11 12 15 15 12 11 11 11 12 12 12 11 12 12 11 12 13 14 15 16 16
26 26 27 27 29 30 29 29 29 28 28 28 28 28 27 26 25 24 24 23 21 19 18 18 17 16 15 14 14 14 14 14 14 14 14 15 15 15 15 15 15 15 14 14 14 14 13 14 14 14 15 16 16 16 15 15 14 13 12 12 12 13 13 12 12 14 16 14 12 12 11 11 12 12 12 13 13 13 13 14 15 16 18 19 18
27 26 26 26 27 27 27 27 26 25 25 24 24 25 26 25 25 23 21 19 18 16 15 14 13 13 13 13 13 13 13 14 14 14 14 14 14 14 15 15 15 15 15 14 14 13 13 14 14 14 15 15 15 15 15 14 14 13 12 12 12 13 12 12 13 16 16 14 13 13 12 12 13 13 13 14 15 14 15 17 17 19 20 20 19
26 26 26 26 26 25 25 25 24 23 23 23 23 23 23 23 23 21 18 16 14 13 13 12 12 13 12 12 13 13 13 13 13 13 14 14 14 14 14 14 14 14 14 14 14 13 12 13 13 14 14 15 15 15 15 14 13 13 12 12 12 12 12 13 15 16 15 13 13 13 13 13 13 14 15 16 17 17 18 19 20 21 21 20 21
25 26 25 25 25 24 23 23 23 23 22 22 21 21 19 18 18 17 15 13 12 12 12 12 12 12 12 12 12 13 13 13 13 13 13 13 13 13 13 13 13 12 12 13 13 13 12 12 13 14 14 15 15 14 14 14 13 12 12 12 12 12 12 14 16 15 14 14 14 13 13 14 14 15 16 18 19 20 21 22 23 23 23 24 28
25 25 24 24 24 23 23 22 22 22 21 20 19 18 16 15 14 13 13 13 12 12 11 11 12 12 12 12 12 12 13 13 12 12 12 12 12 12 12 12 12 11 11 12 12 12 12 12 12 13 14 15 15 14 14 13 12 12 13 12 11 12 13 15 16 15 14 14 14 14 14 15 15 16 18 20 21 22 23 24 25 26 28 33 37
24 23 23 23 22 22 22 21 21 20 19 18 16 15 14 13 12 12 12 12 12 12 12 11 11 11 11 12 13 12 12 12 12 12 12 12 12 12 11 11 11 11 11 11 11 11 12 11 11 13 14 14 15 14 14 13 12 13 13 12 12 13 14 15 15 15 14 14 14 14 15 16 17 19 20 21 23 24 25 26 28 30 36 40 41
22 21 21 21 20 20 19 18 17 17 16 15 14 13 13 12 12 12 12 12 12 12 12 12 12 12 12 12 13 13 13 13 13 12 12 13 13 13 12 12 12 11 11 11 10 11 11 11 11 12 13 14 14 14 14 13 13 13 13 12 13 14 14 14 15 15 15 14 14 15 16 17 19 21 22 23 25 26 27 30 32 36 41 43 40
21 20 20 19 18 17 16 15 14 14 14 13 13 13 12 12 12 12 12 12 12 12 13 13 13 13 13 13 12 13 13 12 12 12 12 12 12 13 13 13 13 12 12 11 11 10 10 10 10 11 12 13 14 14 14 13 14 14 13 13 14 14 14 14 15 15 14 14 15 16 17 19 22 23 24 25 26 27 30 33 38 41 42 39 38
19 18 19 18 16 15 14 14 13 13 13 13 13 12 12 12 12 12 12 12 13 13 13 13 13 13 13 12 12 11 11 11 10 10 10 10 11 11 12 12 13 13 12 11 11 10 10 10 10 11 12 13 14 15 14 14 14 14 13 13 14 13 13 14 15 14 14 15 15 17 19 22 24 25 26 27 29 31 34 39 42 42 40 39 44
17 17 16 15 15 14 13 13 13 13 13 13 12 12 12 12 12 12 13 13 13 13 13 13 12 12 11 11 11 10 10 10 10 10 10 10 10 10 11 12 12 12 12 12 11 11 10 10 10 11 12 14 15 15 15 14 13 13 13 13 13 13 14 15 15 14 15 15 16 18 21 24 26 27 28 30 32 35 39 43 43 40 40 45 54
15 15 14 13 14 13 13 13 13 13 13 12 12 12 12 12 12 13 13 13 13 12 12 11 10 10 10 10 10 10 10 9 9 9 9 9 9 9 9 10 11 12 12 12 11 11 10 10 10 11 13 15 16 15 14 13 12 13 13 12 13 14 15 15 14 15 15 16 17 20 23 26 27 28 31 34 37 41 44 43 40 40 47 57 64
14 13 13 13 14 13 13 14 13 13 13 13 12 12 12 12 12 13 12 12 12 11 10 10 9 9 9 9 9 9 9 9 9 9 9 9 9 9 9 9 10 11 12 12 12 12 11 10 10 12 14 15 16 15 13 12 12 12 12 12 14 15 15 15 15 15 15 16 19 23 25 27 28 31 35 39 43 45 44 41 42 51 63 71 73
13 13 13 13 14 14 14 14 14 13 13 13 12 12 12 12 12 12 11 11 10 9 9 9 9 9 9 9 9 9 9 8 8 9 9 9 9 9 8 9 10 10 11 12 13 12 10 10 11 13 14 15 15 13 12 12 12 12 12 14 15 15 15 15 15 15 16 19 22 24 26 28 31 35 40 44 46 45 43 45 55 68 77 79 79
12 12 13 13 13 14 15 15 14 14 14 13 12 12 12 11 11 11 11 11 10 10 10 10 9 9 10 10 9 9 9 8 8 8 9 9 9 9 9 9 9 10 12 13 12 11 10 11 12 13 14 14 13 12 12 12 12 13 14 14 15 15 15 16 15 16 18 21 24 26 28 31 35 40 45 45 43 43 48 58 70 79 82 82 81
12 13 13 13 14 15 15 15 15 14 13 12 11 11 11 11 12 12 11 11 10 10 10 10 10 10 10 10 10 10 9 8 8 8 8 9 9 9 9 9 9 11 12 12 12 11 10 12 13 13 13 13 13 12 12 12 12 14 14 14 15 16 16 15 16 18 21 23 25 27 30 35 41 45 45 42 42 49 61 73 81 82 81 80 80
13 14 14 14 15 16 15 15 15 13 12 11 11 11 12 12 12 12 11 11 10 10 10 10 10 11 11 10 10 9 9 8 8 8 8 9 10 10 10 9 10 11 12 12 11 10 11 12 13 13 13 13 12 12 12 13 13 14 14 15 16 16 16 16 18 20 23 25 27 29 34 40 45 45 41 42 51 64 76 82 82 79 77 77 77
14 15 15 15 16 15 14 14 13 12 11 11 11 11 11 11 11 10 10 10 10 10 10 10 10 11 11 11 10 10 9 9 8 8 9 10 10 10 10 10 11 12 12 11 11 11 12 13 13 12 12 13 12 12 13 14 14 15 16 17 17 16 16 18 21 22 24 26 28 34 41 45 45 41 42 51 66 79 85 83 80 78 78 78 74
15 15 15 15 14 13 13 12 12 11 11 10 10 10 10 10 9 9 9 9 9 10 10 10 10 11 11 10 10 10 9 9 8 8 9 10 10 11 10 11 12 12 12 11 11 12 13 13 12 13 13 12 13 13 14 14 15 16 17 17 16 17 19 21 22 24 25 27 32 40 46 45 42 43 54 68 80 85 84 81 80 82 82 79 75
14 13 14 13 12 12 12 12 11 10 10 9 9 9 9 8 8 9 9 9 9 10 10 10 10 10 11 11 10 10 9 9 8 9 10 10 11 11 11 12 13 13 12 11 12 12 13 13 13 13 13 13 14 14 14 15 17 18 17 17 18 19 21 22 24 25 27 32 41 47 46 43 45 56 70 80 84 83 82 83 85 85 80 75 75
12 12 12 11 11 11 11 10 10 10 9 8 9 9 8 8 8 8 8 9 10 10 10 10 10 11 11 11 10 10 9 9 9 10 11 11 11 11 12 13 13 12 12 12 12 13 13 13 13 13 13 14 14 15 16 17 18 17 18 19 20 21 23 24 25 27 33 41 48 47 44 47 58 72 80 82 82 81 83 86 85 79 73 72 76
10 10 10 10 10 10 10 10 9 9 8 9 9 8 8 8 8 8 9 9 9 10 10 10 11 11 11 11 11 10 10 9 9 10 11 12 12 12 13 14 13 12 12 13 13 13 13 13 13 14 14 15 15 16 17 17 18 18 20 21 21 23 25 25 27 34 43 48 47 45 49 61 73 80 81 81 81 83 85 84 78 71 69 73 77
Wind_Speed
72 69 67 65 63 63 63 63 63 62 61 59 57 56 55 55 55 57 58 59 58 56 56 57 58 59 59 59 59 59 60 60 61 61 62 62 63 64 65 66 68 69 71 73 74 76 78 79 81 82 83 84 85 85 86 87 87 88 89 89 90 91 92 93 93 94 95 96 97 98 99 100 101 101 102 103 104 104 105 106 107 108 108 109 110
72 70 67 65 63 62 62 63 62 62 61 60 58 56 55 55 56 57 58 59 59 58 57 57 58 59 59 59 60 60 60 61 61 62 62 63 63 63 64 65 66 67 68 70 71 72 74 76 78 79 81 82 83 85 86 87 88 89 90 91 92 93 93 94 95 96 96 97 98 99 100 101 102 102 103 104 105 105 106 107 107 108 109 110 110
74 71 68 65 64 62 62 62 61 61 60 60 59 57 57 56 57 58 59 60 60 60 59 59 59 60 60 60 60 61 61 61 62 62 63 63 64 64 65 65 66 66 67 68 69 71 72 73 74 76 77 78 80 81 82 84 85 86 88 89 90 92 93 94 95 96 97 98 99 100 101 102 103 104 105 105 106 106 107 108 108 108 109 109 110
75 73 69 67 65 63 62 62 61 60 60 60 59 58 58 58 58 59 60 60 60 60 61 60 60 60 61 61 61 62 62 62 62 63 63 64 65 65 66 66 67 67 68 69 69 70 71 72 73 74 75 76 77 78 79 80 81 82 83 85 86 87 89 90 92 93 94 95 96 98 99 99 100 101 102 103 103 104 104 104 105 105 105 105 104
76 74 71 69 67 65 64 63 61 60 60 60 60 59 59 59 59 60 60 61 61 61 62 62 61 60 61 62 62 62 62 63 63 64 64 65 65 66 67 67 68 69 69 70 71 71 72 73 73 74 75 76 76 77 78 78 79 80 81 82 83 84 85 86 87 88 89 90 91 92 93 94 95 95 96 97 98 98 98 98 98 99 100 100 99
77 75 72 70 68 66 65 64 63 62 61 61 60 60 60 60 61 61 61 62 62 62 63 63 63 62 62 62 63 64 64 64 64 64 65 65 66 67 67 68 69 70 71 72 72 73 74 75 75 76 76 77 77 78 78 79 79 80 81 81 82 83 84 85 85 86 87 88 89 89 90 91 91 92 92 93 94 95 95 95 94 94 95 95 96
78 76 73 71 69 68 66 65 64 63 63 63 62 62 62 62 62 62 63 63 64 64 65 64 64 64 64 64 65 66 66 66 66 66 66 66 67 68 69 70 71 71 72 73 74 75 76 76 77 78 78 79 80 80 80 81 81 82 82 83 84 84 85 86 86 87 88 88 89 89 90 90 91 91 91 91 92 93 93 94 94 94 93 93 93
78 76 74 73 71 69 67 66 65 64 64 64 64 64 64 63 63 63 64 64 64 65 66 66 66 66 66 66 67 67 68 68 68 68 69 69 69 70 71 72 73 73 74 75 76 76 77 78 79 79 80 81 82 82 83 83 84 84 84 85 85 86 87 87 88 88 89 89 90 90 90 91 91 91 91 91 92 92 93 93 95 95 95 94 93
79 77 75 73 72 70 69 67 66 66 65 65 66 66 66 66 66 65 65 65 65 66 67 68 68 67 68 68 68 69 70 71 71 71 71 72 73 74 74 75 75 76 77 77 77 78 78 79 80 81 81 82 83 83 84 85 85 86 87 87 88 88 88 89 89 90 90 90 91 91 91 91 91 92 92 91 91 92 92 93 94 95 96 96 95
79 78 76 74 72 71 69 68 67 67 67 67 67 68 68 68 68 68 68 68 68 68 69 69 70 70 70 70 71 71 72 73 74 74 74 75 77 77 78 79 79 79 79 80 80 80 80 81 81 82 83 83 84 85 85 86 86 87 88 88 89 90 90 91 91 91 92 92 92 92 92 92 92 92 92 92 92 92 93 93 94 95 96 97 97
80 78 77 75 73 72 70 69 68 68 67 67 68 69 70 70 70 70 70 70 70 70 71 71 72 73 73 74 74 74 75 76 76 77 78 78 80 80 81 82 82 82 82 82 82 82 82 82 83 83 84 84 85 85 86 86 87 88 88 89 90 90 91 91 92 92 93 93 93 93 93 93 92 92 93 93 93 93 93 94 94 95 96 96 97
81 79 78 76 74 73 71 70 69 68 68 68 68 69 70 71 71 71 72 72 72 72 72 73 73 74 75 76 76 76 77 78 79 80 81 81 82 82 83 83 84 84 84 84 84 84 84 84 84 84 85 85 85 86 86 87 87 88 89 90 90 91 91 92 92 92 92 93 93 93 93 93 93 93 93 94 94 94 94 94 94 94 95 95 96
82 80 79 77 76 74 73 71 70 70 69 69 69 70 70 71 72 72 73 73 73 73 73 74 74 75 76 76 77 78 79 80 81 82 83 83 83 83 83 84 84 84 84 85 85 85 85 85 85 85 85 85 85 86 86 87 87 88 89 89 90 90 91 91 91 92 92 92 92 92 92 92 92 92 92 93 93 93 93 93 93 93 93 93 93
83 81 80 78 77 75 74 72 71 71 70 70 70 70 71 71 72 73 74 74 75 75 74 74 75 76 77 77 78 79 80 81 82 83 84 84 83 82 82 83 84 84 84 85 85 85 85 85 85 85 85 85 85 85 85 86 86 87 87 88 88 89 89 89 89 89 89 89 90 90 90 90 90 91 91 91 91 91 92 92 92 92 92 91 91
85 83 81 79 78 76 75 73 72 72 71 71 71 71 71 72 73 74 75 76 76 76 76 76 76 77 78 79 80 81 81 82 82 82 83 83 83 82 81 81 82 82 83 84 84 84 84 84 84 85 84 84 84 84 84 85 85 85 86 86 86 87 87 87 87 87 86 87 87 87 87 87 88 88 88 89 89 89 89 89 89 89 89 89 88
87 85 83 81 79 77 76 75 74 73 72 72 72 72 73 73 74 75 76 77 77 78 79 79 79 79 80 81 81 81 81 81 81 81 81 81 82 81 80 79 79 80 81 82 83 83 83 83 83 84 84 83 83 83 83 83 83 83 84 84 84 84 84 84 84 84 84 85 85 85 85 85 85 85 86 86 86 86 85 85 84 84 84 84 85
88 86 84 82 80 79 77 76 75 75 74 73 73 74 74 74 75 76 77 78 79 80 81 82 82 82 81 81 81 81 80 80 80 79 79 79 80 79 78 77 77 78 78 79 80 80 81 81 81 82 82 82 81 81 81 80 81 81 81 81 81 81 81 81 81 81 82 82 81 81 81 82 82 82 82 81 81 81 80 80 79 79 79 79 79
90 88 85 83 81 80 78 77 77 76 75 75 75 75 75 76 76 77 79 80 81 82 83 84 84 84 83 82 81 80 79 78 78 78 77 77 77 77 75 75 75 75 75 75 76 76 77 78 78 79 79 79 79 79 79 78 78 78 78 78 78 78 78 78 78 78 78 78 78 77 78 79 79 78 77 76 75 75 75 74 74 74 74 73 73
92 89 87 84 82 80 79 78 77 77 76 76 76 76 77 77 78 79 80 81 82 83 84 85 85 85 85 85 84 82 80 78 77 76 75 75 75 74 73 73 73 73 72 72 72 73 73 74 75 75 76 77 77 76 76 76 76 76 75 76 75 75 76 75 75 75 75 74 74 74 74 76 75 73 72 72 71 71 71 70 70 70 70 69 68
93 90 88 85 83 81 79 78 77 77 77 77 77 78 78 79 80 81 82 83 83 84 84 85 86 86 87 86 86 84 82 79 77 75 74 73 72 72 71 71 71 71 71 70 71 71 71 71 72 72 73 74 74 74 74 74 73 73 73 74 74 74 74 73 73 73 73 73 71 71 71 72 70 68 68 68 68 68 68 67 66 66 66 66 65
94 91 88 86 84 82 80 79 78 78 78 78 78 79 79 80 81 82 83 84 84 84 85 85 86 87 87 87 86 85 83 80 78 75 73 71 70 70 70 69 69 70 70 70 70 70 70 69 70 70 71 72 72 71 72 72 71 71 71 72 72 72 72 71 71 71 72 71 70 69 69 68 66 65 65 65 65 65 65 64 64 63 62 62 62
95 92 89 87 84 82 81 80 79 79 78 78 79 79 80 81 82 83 83 84 85 85 85 85 85 86 86 86 85 84 83 80 78 75 72 70 68 68 68 68 68 69 69 69 69 69 69 68 68 68 69 69 69 69 69 69 69 69 69 70 70 70 70 69 69 70 70 69 67 66 67 65 63 62 62 62 62 62 62 61 61 60 59 58 59
96 93 90 87 85 83 82 81 80 79 79 79 79 80 81 82 82 83 84 85 85 86 86 85 85 84 84 84 83 82 81 80 78 75 72 69 68 67 67 67 67 67 68 68 69 69 69 68 67 67 67 67 67 67 67 67 66 66 67 67 68 67 67 67 67 68 68 66 64 63 63 62 61 60 59 59 59 59 58 58 58 57 56 55 56
96 93 90 88 86 84 82 81 80 80 80 80 80 81 81 82 83 84 85 85 85 86 85 85 84 83 83 82 82 80 79 78 76 74 72 69 68 67 66 66 66 67 67 66 67 68 68 67 67 66 65 65 65 65 65 64 64 64 64 65 65 65 65 64 65 66 65 63 61 60 59 58 58 57 57 56 57 56 55 54 54 55 53 52 53
96 93 90 88 86 85 83 82 82 81 81 81 81 81 82 82 83 83 84 85 85 85 85 85 84 83 82 81 80 78 77 76 75 73 72 70 68 66 66 66 66 66 65 65 65 66 66 66 66 65 64 63 63 63 63 62 62 62 63 63 63 62 62 62 63 64 62 59 57 56 55 55 54 54 53 54 54 54 52 50 51 51 50 49 49
96 93 91 89 87 86 85 84 83 83 83 83 83 83 83 83 83 84 84 84 84 84 84 84 83 82 80 79 78 77 75 74 73 72 71 70 68 66 65 64 64 65 65 64 63 64 65 65 65 64 63 62 61 61 61 61 60 61 61 61 61 60 59 60 61 61 58 55 53 53 53 52 51 50 50 51 51 51 49 47 47 48 47 46 45
97 94 92 90 89 87 86 86 85 85 85 84 84 84 84 84 84 84 84 84 84 84 84 83 82 81 79 77 76 75 74 73 72 71 71 70 68 66 64 63 63 64 64 64 63 63 64 64 64 63 62 61 61 61 60 60 59 59 60 60 59 58 57 58 59 57 54 51 51 51 51 50 48 48 48 48 48 48 46 45 44 44 44 43 41
98 96 94 92 91 90 89 88 87 87 87 86 86 86 85 85 84 84 84 83 83 83 82 82 81 79 77 76 75 73 72 71 70 70 70 69 68 66 65 63 63 63 63 64 64 64 64 64 63 62 61 60 60 60 59 59 58 58 59 59 57 56 56 57 56 53 50 49 50 50 48 47 46 46 46 45 45 45 44 43 42 41 40 40 38
99 97 95 94 93 92 91 90 89 88 88 88 87 87 86 85 85 84 83 82 81 81 80 79 79 77 76 74 73 72 71 70 68 68 68 68 67 67 66 65 64 63 63 63 63 63 63 63 62 60 59 59 58 58 58 58 57 57 58 57 56 55 55 55 53 49 47 48 48 47 46 44 44 44 43 43 43 42 41 40 39 38 37 37 36
101 99 97 96 95 94 92 91 90 89 88 88 87 87 86 85 84 83 82 81 79 78 77 77 76 75 74 73 72 71 70 69 68 67 67 66 66 66 66 66 65 64 63 63 62 62 62 61 61 59 58 57 57 56 56 56 56 56 56 56 55 54 54 53 50 46 45 47 46 45 43 42 41 42 41 40 40 40 38 37 36 35 35 35 34
103 101 99 97 96 94 93 92 90 89 88 87 86 86 85 84 83 82 81 80 78 77 75 74 74 73 72 72 71 70 69 68 67 67 66 66 65 65 65 65 65 64 63 62 61 61 61 60 59 58 57 56 55 55 54 55 55 55 55 54 53 52 52 51 46 44 45 45 44 42 42 40 40 40 39 38 38 37 36 34 33 32 32 32 32
105 102 100 98 97 95 93 92 90 88 87 86 85 84 83 83 82 81 79 78 77 75 74 73 72 71 71 70 70 69 68 67 66 66 66 65 64 64 63 63 63 63 63 62 61 60 59 58 58 57 55 54 54 53 53 53 54 54 54 53 51 51 50 48 44 42 44 43 41 40 40 39 38 38 37 35 35 35 34 32 30 29 29 29 29
105 103 101 98 96 94 93 91 89 88 86 85 84 82 81 81 80 80 78 77 75 74 73 72 71 71 70 69 68 68 68 67 66 65 64 63 63 62 61 61 61 61 60 60 60 60 58 57 56 55 54 53 52 51 51 52 52 52 52 51 50 49 47 44 42 42 42 40 38 38 38 37 36 35 34 33 33 32 31 29 27 27 27 26 25
105 102 100 98 96 94 92 90 89 87 85 83 82 81 80 79 78 77 77 76 74 73 71 71 70 70 70 69 68 67 67 66 65 64 62 62 61 60 60 60 60 59 58 57 57 58 57 55 54 54 53 52 51 51 50 50 50 50 49 49 48 46 43 41 41 42 40 38 37 36 35 34 34 32 31 31 31 29 28 26 24 24 24 24 23
104 101 99 97 95 93 91 89 87 86 84 82 81 79 78 77 76 75 75 74 74 73 71 70 69 68 68 68 67 66 65 64 63 62 60 59 59 58 58 58 58 58 56 55 54 55 55 54 53 52 51 51 51 50 50 50 49 48 47 46 45 42 39 39 41 40 37 36 35 34 33 32 31 30 29 29 28 26 25 23 22 21 21 21 21
103 100 98 95 93 91 89 87 86 84 82 81 79 78 77 76 75 74 74 73 72 72 71 70 69 67 66 65 65 65 64 62 61 60 58 57 57 56 56 56 56 56 55 53 52 52 52 52 51 50 49 49 49 49 49 49 47 46 45 44 42 39 38 39 39 37 35 34 33 32 30 29 28 28 27 26 25 23 21 20 20 19 18 18 18
102 99 96 94 91 89 87 85 83 82 81 80 78 77 76 75 74 73 73 72 71 71 70 69 68 67 65 64 64 63 63 62 61 59 58 57 56 55 54 54 54 54 53 52 51 50 50 50 49 47 47 47 47 47 47 47 45 44 43 41 38 37 37 38 36 34 33 32 31 29 28 27 26 25 25 24 22 20 19 18 18 17 16 16 16
100 98 95 92 89 87 85 83 82 81 80 79 78 77 76 74 73 72 71 71 70 69 69 68 67 66 66 65 64 63 62 61 60 59 58 56 55 54 53 53 52 52 52 51 49 48 48 47 46 45 45 45 45 45 45 44 42 42 40 38 36 36 36 35 33 32 31 30 28 27 26 24 23 23 22 21 19 18 17 17 16 14 14 14 13
98 96 93 91 88 85 83 82 81 80 79 78 77 76 75 74 73 72 71 70 69 68 67 67 66 65 65 64 63 62 61 60 58 57 56 55 54 53 52 51 51 51 50 49 48 47 46 45 44 43 43 42 42 42 42 41 40 39 37 36 35 35 34 32 30 30 29 27 26 25 23 22 21 21 20 18 17 17 16 15 13 12 12 11 10
96 93 91 89 86 84 82 80 79 78 78 77 76 75 74 73 72 71 70 69 68 68 67 66 65 64 63 62 62 61 59 58 57 55 54 53 52 51 50 50 50 49 49 48 46 44 44 43 42 41 40 39 39 39 39 38 37 36 35 35 34 32 30 29 28 27 26 25 24 22 21 20 19 18 17 16 16 15 14 12 10 10 9 8 8
94 92 89 87 85 83 81 79 78 78 77 76 75 74 73 72 71 70 69 68 68 67 66 64 63 62 60 60 59 58 57 56 55 54 52 51 50 49 48 48 48 48 47 45 44 43 42 41 40 39 38 37 36 36 36 36 35 33 33 33 31 29 28 27 26 25 24 23 22 20 19 18 18 17 15 15 14 12 10 9 8 7 6 6 7
93 90 88 86 84 82 80 79 78 78 77 76 75 73 72 71 70 69 68 67 67 66 65 63 61 59 58 58 57 56 55 54 53 52 51 49 48 47 46 46 46 46 45 43 42 41 40 39 38 37 35 34 34 34 34 33 32 31 31 29 28 26 26 24 23 23 22 21 19 18 17 17 16 15 14 13 11 9 8 7 6 5 5 6 7
91 88 86 84 83 81 80 79 78 77 77 75 74 72 71 70 69 68 67 66 65 64 63 62 60 57 56 55 54 54 53 52 51 50 49 48 46 45 44 43 43 43 42 41 40 39 38 37 36 35 33 33 32 32 31 31 30 28 27 26 25 24 23 22 22 21 20 18 17 17 16 16 15 13 12 9 7 6 6 5 4 4 5 5 6
89 87 85 83 82 81 80 79 78 78 77 75 73 72 70 68 67 66 65 65 64 63 61 60 58 56 54 53 52 51 51 50 49 48 47 46 45 43 42 41 40 40 39 38 37 36 36 35 34 33 32 31 31 30 28 27 26 25 24 24 23 22 21 20 20 19 17 16 16 16 15 14 13 11 9 7 5 5 5 4 4 4 4 4 6
88 86 84 83 82 81 80 79 78 77 76 75 73 70 69 67 65 64 63 63 62 60 59 57 56 54 53 51 50 49 48 47 46 45 44 44 43 42 40 39 38 37 36 35 35 34 33 33 32 32 31 29 28 27 25 24 23 23 22 22 20 20 19 19 18 16 16 15 15 15 14 12 10 8 7 6 5 5 5 5 5 4 3 4 6
87 85 84 82 81 80 79 79 78 76 75 73 71 69 67 65 63 62 62 61 59 58 56 54 53 52 51 50 48 47 45 44 43 42 41 41 40 39 38 37 35 34 33 33 32 31 31 31 30 29 28 27 25 24 22 21 21 21 20 19 18 18 18 17 16 15 15 15 14 13 12 10 8 7 7 7 7 7 6 5 4 3 3 4 6
86 84 82 81 80 79 78 77 76 74 73 70 68 66 64 63 61 60 59 58 57 55 53 51 50 49 48 47 46 44 43 42 41 40 39 38 37 36 35 34 33 31 31 30 29 29 29 29 28 27 26 24 22 21 20 19 19 18 18 17 17 17 16 15 15 14 14 14 13 11 10 9 8 8 8 8 8 7 6 4 3 3 3 4 3
84 83 81 79 78 77 77 76 74 72 70 68 65 63 62 61 60 58 57 55 54 52 51 49 47 46 45 44 43 41 40 39 38 37 36 35 34 33 32 31 30 29 28 28 27 27 27 26 25 24 23 21 19 18 18 18 17 17 16 16 15 15 14 14 14 13 13 13 11 10 9 9 10 10 10 10 9 7 6 4 3 3 3 2 1
83 81 79 78 76 75 75 74 72 70 67 65 63 61 60 59 58 56 54 52 51 49 48 46 45 44 43 41 40 39 38 37 36 34 34 32 31 30 29 28 27 27 26 26 26 25 24 24 23 21 19 18 17 17 16 16 16 15 15 14 14 14 14 13 13 13 12 11 10 10 11 12 12 12 11 10 8 7 6 5 5 5 4 2 4
81 79 77 76 74 73 72 71 69 67 65 62 60 59 58 57 55 53 51 49 48 46 45 44 43 41 40 38 37 36 35 34 33 32 31 30 29 28 27 26 25 25 25 24 23 22 22 21 19 18 17 17 16 15 15 15 15 14 13 13 14 13 13 13 13 12 11 11 12 13 14 14 14 13 12 10 8 7 7 6 7 7 5 4 7
79 77 75 73 71 70 69 69 67 65 62 60 58 58 56 54 52 50 48 47 45 44 43 42 40 39 37 35 34 33 32 31 30 29 28 27 26 25 24 24 24 23 23 22 21 20 19 18 17 16 16 15 15 14 14 14 13 13 13 14 13 13 13 13 13 12 12 13 15 16 16 16 15 13 11 10 9 8 8 8 8 7 6 7 9
Wind_Direction
320 318 314 311 308 306 304 304 304 304 304 304 302 300 299 299 298 297 297 296 296 295 294 293 292 292 291 290 289 288 288 287 286 285 285 284 283 282 282 280 279 278 277 275 274 274 273 272 272 271 271 271 271 271 271 271 271 270 270 270 270 270 270 270 270 270 270 271 271 271 271 272 272 272 272 272 273 273 273 274 274 275 275 276 276
321 319 316 312 309 306 305 304 305 306 306 305 303 301 300 300 299 298 297 297 297 296 295 294 293 293 292 291 290 289 288 287 286 285 285 284 283 283 282 282 281 280 279 278 277 276 275 274 273 273 272 272 272 272 272 271 271 271 271 271 271 271 271 271 271 271 271 271 271 272 272 272 273 273 273 273 273 274 274 274 275 275 276 276 277
322 320 317 313 310 307 305 305 305 306 307 306 304 302 301 300 300 299 298 298 297 297 296 295 294 293 293 292 291 290 289 288 287 286 285 284 284 283 283 282 281 281 280 279 279 278 277 276 275 275 274 274 273 273 273 273 272 272 272 272 272 272 272 271 271 271 271 271 272 272 272 272 273 273 274 274 274 275 275 275 276 276 276 277 277
323 321 318 315 312 309 307 306 306 306 307 306 305 303 302 301 300 299 298 298 297 297 296 296 295 294 294 293 292 292 291 290 289 288 287 286 285 284 283 283 282 281 281 280 279 279 278 278 277 276 276 275 275 274 274 274 274 273 273 273 273 273 273 273 273 273 272 272 272 273 273 273 273 274 274 274 274 275 275 276 276 277 277 277 278
323 322 320 316 313 311 308 307 307 307 307 306 305 303 302 301 300 299 298 298 297 296 296 296 295 295 294 294 293 292 292 291 290 290 289 288 287 286 285 284 283 282 281 281 280 279 279 279 278 278 277 277 276 276 276 275 275 275 274 274 274 274 274 274 274 274 274 274 274 274 274 274 274 274 275 275 275 275 275 276 276 277 278 278 278
324 322 320 318 315 312 310 308 307 307 307 306 305 304 302 301 300 299 298 298 297 297 296 296 295 295 294 294 294 293 293 292 292 291 290 290 289 288 287 286 285 284 283 282 281 280 279 279 278 278 278 277 277 277 277 276 276 275 275 275 274 274 274 274 274 274 274 274 274 274 274 274 274 275 275 276 276 276 277 276 276 276 277 278 279
324 323 321 319 316 313 310 308 308 307 307 306 306 304 302 301 299 299 298 298 297 297 297 296 296 296 295 295 295 294 294 294 293 292 292 291 290 289 288 287 286 285 284 283 282 281 280 279 279 278 278 277 277 277 277 276 276 276 275 275 275 275 274 274 274 274 274 274 274 275 275 275 275 275 276 276 276 277 278 278 278 278 277 277 277
324 323 321 320 317 314 311 309 307 306 306 306 305 304 303 301 299 297 297 296 296 296 296 296 296 296 295 295 295 295 294 294 294 294 293 293 292 291 290 289 287 286 285 284 283 282 281 280 279 278 278 277 277 277 276 276 276 276 276 276 275 275 275 275 275 275 275 275 275 275 276 276 276 276 277 277 277 278 278 279 279 279 279 279 278
324 323 322 320 318 315 313 310 308 306 306 305 304 304 303 302 300 299 297 296 296 296 296 296 296 296 295 295 295 295 295 295 295 295 295 294 293 293 291 290 289 288 286 285 283 282 281 281 280 279 279 278 277 277 277 276 276 276 276 276 276 276 276 276 276 276 276 276 276 276 276 277 277 277 278 278 278 278 279 279 279 279 280 280 279
325 323 322 320 318 316 314 311 308 306 305 304 304 303 302 302 301 300 299 298 297 296 296 296 296 297 297 296 296 296 296 296 296 296 295 295 294 293 292 291 290 289 287 286 284 283 282 281 280 279 279 278 278 277 277 277 277 277 276 276 276 276 276 276 276 276 276 277 277 277 277 277 278 278 279 279 279 279 279 279 279 280 280 280 280
325 323 322 320 318 317 315 312 309 307 305 304 303 302 301 301 301 300 299 298 297 297 297 297 297 297 297 297 297 297 297 296 296 296 295 295 294 293 292 291 290 289 287 286 285 284 283 282 281 280 279 278 278 278 277 277 277 277 277 277 277 277 277 277 277 278 278 278 278 279 279 279 279 280 280 280 280 280 279 279 279 279 279 280 280
325 323 322 320 318 316 315 313 311 308 306 304 302 301 300 300 300 299 299 298 298 298 297 297 297 296 296 296 296 296 296 296 296 295 294 294 293 292 291 290 289 288 287 286 285 284 283 282 281 281 280 279 279 278 278 278 278 278 277 278 278 278 278 278 278 279 279 279 279 280 280 280 281 281 280 280 280 280 280 279 279 279 279 279 279
325 324 322 320 318 316 315 313 312 310 308 305 303 302 301 300 300 299 299 299 298 298 298 297 297 296 296 296 296 296 295 295 295 294 293 293 292 291 291 290 289 288 287 286 285 284 283 282 282 281 280 280 280 279 279 279 278 278 278 278 278 279 279 279 279 279 280 280 280 280 281 281 281 281 280 280 280 280 280 279 279 278 278 278 278
325 324 322 320 318 316 314 313 311 310 309 307 305 303 302 301 300 300 300 299 299 299 298 298 297 297 297 296 296 296 295 295 294 294 293 293 292 291 290 289 288 287 286 286 285 284 283 283 282 281 281 281 280 280 280 280 280 279 280 280 280 280 280 280 280 281 281 281 281 281 281 281 281 281 280 280 280 280 280 280 280 280 280 280 280
325 324 322 320 317 315 314 312 311 309 308 307 306 304 303 302 302 301 300 300 300 299 299 299 298 298 297 297 296 296 295 295 295 294 294 293 292 291 290 289 288 287 286 285 285 284 283 283 283 282 282 282 282 282 281 281 281 281 281 281 281 282 282 282 282 282 282 282 282 282 282 282 281 281 281 281 281 280 280 281 281 282 283 283 282
325 323 322 320 318 315 314 312 310 309 308 307 306 305 304 303 303 302 301 301 301 301 300 300 299 298 298 297 297 297 296 296 296 295 295 294 293 292 291 289 288 287 286 285 284 284 284 284 284 284 283 283 283 283 283 283 283 283 282 283 283 283 283 283 283 283 283 283 283 283 283 283 283 282 282 282 283 283 283 284 284 284 284 284 284
325 323 322 320 318 316 314 312 310 309 308 307 306 305 304 304 303 302 302 302 302 302 301 301 300 299 299 298 298 298 298 298 297 296 296 294 293 292 291 290 288 287 286 285 285 285 285 284 284 284 284 284 284 284 284 284 284 284 284 284 284 284 284 284 284 284 284 284 284 284 284 284 284 283 284 284 285 286 286 287 286 286 285 285 285
325 323 321 320 318 316 314 312 311 309 308 307 306 305 305 304 304 303 303 303 303 302 302 301 301 301 301 300 300 300 299 299 298 297 296 295 294 293 292 291 289 288 287 286 286 285 285 284 284 284 285 285 285 285 285 285 285 285 286 286 286 286 286 285 285 285 285 286 286 286 286 285 285 286 287 287 288 288 288 288 287 287 286 286 286
324 323 321 319 317 315 314 312 310 309 308 307 306 305 305 305 304 304 303 303 302 302 302 302 303 303 303 303 302 302 301 300 299 298 297 296 295 294 293 292 290 289 288 287 287 286 285 285 285 285 285 285 286 286 286 286 287 287 287 287 287 287 286 287 287 287 287 286 286 286 287 287 287 289 290 290 291 290 289 289 288 288 287 287 288
324 323 321 319 317 315 314 312 310 309 308 307 306 306 305 305 304 304 303 303 303 303 303 304 304 304 304 304 304 303 302 302 301 300 298 297 296 295 294 292 292 291 289 288 287 287 286 286 286 286 286 286 286 287 287 287 287 288 288 288 288 288 288 288 288 288 288 288 288 288 288 288 289 291 292 292 292 291 290 289 289 289 289 289 289
324 322 321 319 317 316 314 312 311 309 308 307 306 305 305 304 304 304 303 304 304 304 304 305 305 305 304 304 304 303 303 302 301 300 299 298 296 295 294 293 292 291 290 289 288 287 287 287 287 286 286 287 287 287 287 288 288 288 288 288 288 289 289 289 289 289 289 289 290 290 290 291 292 293 293 292 291 290 290 290 289 289 289 289 289
324 322 321 319 318 316 314 313 311 310 308 307 306 305 305 304 304 304 304 304 305 305 305 305 305 304 304 304 303 303 303 302 301 300 299 298 296 295 294 293 292 291 290 290 289 288 288 287 287 287 287 287 288 288 288 289 289 289 289 289 289 289 289 289 290 289 289 290 291 291 292 293 294 293 292 291 291 290 290 290 290 290 290 290 289
324 322 321 319 318 316 314 313 311 310 309 308 307 306 305 305 305 305 305 305 305 305 305 304 304 304 304 303 303 303 302 302 301 300 299 298 297 295 294 293 292 291 290 290 290 289 289 288 288 288 288 288 288 288 289 289 289 289 289 289 289 289 289 289 289 289 289 290 292 292 293 294 293 292 291 291 290 290 290 290 290 290 290 290 289
323 322 320 319 318 316 315 313 312 310 309 308 307 307 307 306 306 306 306 306 305 305 305 304 304 304 303 303 302 302 301 301 300 299 299 298 297 296 295 294 293 292 291 290 290 289 289 289 289 288 288 288 289 289 289 289 289 289 289 288 289 289 289 289 289 289 290 291 293 293 294 293 292 291 291 291 291 290 290 291 290 290 290 290 290
323 321 320 319 317 316 315 314 312 311 310 310 309 309 308 308 307 307 306 306 305 305 305 304 304 303 303 302 302 301 300 300 299 299 299 298 297 297 296 295 293 292 291 290 290 290 290 290 289 289 289 289 289 289 289 289 289 289 288 288 288 288 289 289 289 289 291 293 294 295 293 292 292 292 292 291 290 290 291 291 291 290 291 291 290
322 321 320 319 317 316 315 314 314 313 312 312 311 310 309 309 308 307 306 306 305 305 304 304 303 303 302 302 301 300 300 299 299 299 298 298 297 296 295 294 293 293 292 291 291 290 290 289 290 290 290 290 290 289 289 289 289 289 288 288 288 288 289 289 289 290 292 295 296 294 292 292 292 293 292 291 291 291 291 291 291 291 292 292 291
322 321 320 319 318 317 316 315 315 314 313 312 311 311 310 309 308 307 306 306 305 305 304 303 303 302 302 301 301 300 299 299 299 298 298 297 297 296 295 294 293 293 292 292 291 291 290 289 289 289 290 290 290 290 290 290 289 289 288 288 289 289 289 289 290 292 295 297 296 293 292 293 294 293 292 292 292 292 292 292 292 292 293 292 292
322 321 320 319 318 318 317 316 315 314 313 312 311 310 309 309 308 307 306 305 305 304 303 303 302 302 301 301 300 299 299 298 298 298 297 297 297 296 295 294 293 293 292 292 292 291 290 290 289 289 290 290 290 290 290 289 289 289 288 288 289 290 290 290 291 293 297 297 294 293 293 294 294 294 293 293 293 293 293 293 293 293 293 292 292
322 321 321 320 319 318 317 316 315 314 313 312 311 310 309 308 307 306 305 304 304 303 302 302 301 301 301 300 299 299 298 298 297 297 296 296 296 295 295 295 294 293 292 291 291 290 290 290 290 290 290 290 290 290 289 289 288 288 287 288 289 289 290 290 292 295 297 295 293 293 294 294 294 294 293 293 293 293 294 294 294 294 293 293 292
322 322 321 320 319 318 317 315 314 313 312 311 310 309 308 307 306 305 305 304 303 302 302 301 301 300 300 299 299 298 298 297 297 296 295 295 295 295 295 294 293 293 292 291 291 290 290 290 290 291 291 290 290 290 289 288 288 287 287 287 288 289 289 290 293 297 296 293 292 294 294 294 294 294 293 293 293 293 294 295 294 294 294 293 291
322 321 320 319 318 317 316 314 313 312 311 310 309 308 308 307 306 305 304 304 303 303 302 301 301 300 300 299 298 298 297 297 296 296 295 294 294 294 293 293 293 292 292 291 290 290 290 290 290 290 290 290 289 289 288 287 287 286 286 286 287 288 289 291 294 296 293 292 293 294 293 294 294 293 293 294 293 293 294 294 294 294 294 292 291
321 320 319 318 317 316 315 314 313 311 311 310 309 308 307 307 306 305 304 304 303 303 302 301 301 300 299 298 298 297 297 296 295 295 294 294 293 293 292 292 291 291 291 291 290 289 289 289 289 289 289 288 288 287 287 286 285 285 285 286 287 287 289 292 294 293 291 291 293 293 292 293 292 292 293 293 293 293 294 294 294 293 291 289 290
320 319 318 317 316 315 314 313 312 311 310 309 308 307 307 306 305 305 304 304 303 302 302 301 300 300 299 298 298 297 297 296 295 295 294 293 293 292 291 290 290 289 289 289 289 289 288 288 288 288 288 287 287 286 285 284 284 284 285 285 286 287 289 292 292 290 289 291 291 291 291 291 291 291 292 292 292 293 293 293 293 291 288 288 290
319 318 318 317 316 315 314 313 312 311 310 309 308 307 307 306 305 305 304 304 303 302 302 301 300 300 299 299 298 297 297 296 295 295 294 293 292 291 290 289 288 288 288 288 288 288 288 288 288 288 288 287 287 286 285 284 284 284 284 285 285 287 290 290 288 288 289 290 290 289 289 289 289 290 290 290 291 291 291 291 290 288 287 289 290
319 318 317 316 315 314 313 313 311 311 310 309 308 307 307 306 305 305 304 303 303 302 302 301 300 300 299 299 298 297 296 295 294 294 293 292 291 290 289 288 288 287 287 287 287 287 287 287 287 287 287 287 286 286 285 284 284 285 285 285 286 288 289 286 285 287 289 289 288 288 287 287 287 288 289 289 289 288 288 287 285 284 285 288 290
318 317 317 316 315 314 313 312 311 310 310 309 308 307 306 306 305 304 304 303 303 302 302 301 301 300 299 298 297 296 295 295 294 293 292 291 290 289 288 288 287 287 286 286 286 285 285 286 286 286 286 286 285 285 284 284 285 285 285 285 286 287 285 283 284 287 287 286 286 285 285 285 286 286 287 287 285 284 284 283 281 281 284 286 289
318 317 316 315 314 314 313 312 311 310 309 309 308 307 306 305 305 304 304 303 303 302 302 301 301 300 299 298 297 296 295 294 293 293 292 291 290 289 288 287 287 286 286 286 285 285 284 284 285 285 285 284 284 283 283 284 284 284 284 284 285 283 281 282 284 285 284 284 284 283 283 283 284 285 285 283 281 279 278 277 277 280 283 287 292
317 317 316 315 314 314 313 312 311 310 309 308 307 306 306 305 305 304 304 303 302 302 301 300 300 299 298 297 296 295 294 294 293 292 291 290 289 288 287 287 286 286 285 285 285 284 284 284 285 285 284 283 283 282 283 283 283 282 282 282 281 280 280 282 283 283 282 282 281 281 281 281 282 282 280 277 275 275 273 272 274 279 285 291 298
317 316 316 315 314 313 313 312 311 309 308 307 307 306 306 305 305 304 304 303 302 301 300 300 299 298 298 297 296 295 294 293 292 291 291 290 289 288 287 286 285 285 284 285 285 285 285 285 285 284 283 283 282 282 282 281 281 280 279 278 277 277 279 281 280 280 280 279 278 278 279 279 278 275 272 270 269 268 268 271 276 283 290 297 301
316 316 315 314 314 313 312 311 310 308 307 307 306 306 305 305 305 304 304 303 302 301 300 299 298 297 297 296 295 295 294 293 292 291 290 289 288 287 287 286 285 284 284 285 285 286 286 285 284 284 283 282 281 280 279 278 277 277 276 275 275 277 278 278 277 277 277 276 275 275 275 274 272 267 265 263 263 263 266 272 279 286 292 294 291
316 315 315 314 313 312 311 310 309 308 307 306 306 306 306 306 305 304 303 302 301 300 299 299 298 297 297 296 295 294 294 293 292 291 290 289 288 287 286 285 284 284 284 285 285 286 285 284 284 283 282 281 279 277 276 275 275 274 273 273 275 275 275 274 275 274 272 271 271 271 270 267 263 259 257 256 257 261 267 274 281 288 290 288 286
315 315 314 313 312 312 311 310 309 308 307 306 306 306 306 306 305 305 303 302 301 300 299 299 298 298 297 296 295 294 294 293 292 291 290 289 288 287 286 285 284 283 284 284 285 285 284 283 282 281 281 279 276 274 273 274 273 272 272 273 273 272 272 272 271 269 267 267 266 265 262 258 254 252 251 250 252 258 265 273 281 286 283 283 291
314 313 313 312 312 311 310 309 308 308 307 307 307 307 307 306 306 305 303 302 301 300 300 299 299 298 297 296 295 294 293 292 292 291 290 289 288 287 286 284 283 283 283 283 283 283 282 281 281 280 278 276 273 273 273 273 272 271 271 270 270 269 269 268 266 264 262 261 259 256 252 249 246 245 244 242 243 247 252 257 260 264 269 285 299
313 313 313 312 312 311 310 309 308 308 307 307 307 308 307 307 305 304 303 301 300 300 300 299 299 298 297 296 295 294 293 292 291 290 289 289 288 287 285 284 283 282 282 281 281 281 281 280 279 277 275 274 273 273 272 271 270 269 267 266 266 266 264 262 260 259 256 253 250 246 243 240 239 237 233 227 223 222 225 229 232 240 261 287 292
313 313 313 312 312 311 310 309 308 308 308 308 308 308 308 307 305 303 302 301 300 300 300 300 299 298 297 295 294 293 292 291 290 289 288 287 287 286 285 284 283 281 280 280 280 280 279 278 277 276 274 273 272 272 271 269 266 264 263 263 262 260 258 256 254 251 247 244 240 236 233 232 229 223 214 201 194 196 201 210 219 230 254 273 273
313 313 313 312 311 310 309 308 308 308 308 308 308 308 308 306 304 303 302 301 301 301 301 300 299 298 296 295 294 292 291 290 289 288 287 286 285 285 284 283 281 280 279 279 279 279 277 275 274 274 273 272 271 270 268 264 261 259 259 258 256 254 253 250 246 241 238 235 230 226 224 219 212 201 188 178 178 184 192 200 212 230 251 260 262
313 313 312 311 310 309 308 308 307 307 308 308 308 308 307 305 303 302 302 302 303 302 302 300 299 297 295 294 293 292 291 290 288 287 286 285 284 284 283 281 280 278 278 278 278 277 274 273 272 271 271 270 269 267 262 258 256 254 253 251 250 248 245 240 236 232 228 224 220 215 208 199 189 179 172 170 172 177 184 194 208 234 255 265 275
312 312 311 310 309 309 308 307 307 308 308 308 308 307 305 304 303 303 303 303 303 303 302 300 299 297 295 294 293 292 290 289 287 286 285 284 283 282 281 280 278 277 277 277 275 273 271 271 270 269 269 267 264 259 255 252 250 247 245 244 243 240 235 230 225 221 217 213 206 196 187 180 173 167 165 166 168 171 176 185 203 225 240 247 56
311 311 310 310 309 309 308 308 308 307 308 308 307 306 304 303 304 304 304 304 303 302 301 300 299 298 296 294 293 291 289 288 287 286 285 283 282 281 279 278 277 277 276 274 272 270 269 268 267 266 264 260 255 251 248 245 241 239 238 237 233 229 224 219 214 210 205 197 186 176 172 168 164 163 163 163 163 165 169 180 201 216 213 175 101
311 310 310 310 310 309 308 307 306 306 307 307 306 304 304 304 305 305 305 304 303 302 301 300 299 298 296 294 292 290 288 287 287 285 284 282 281 279 277 276 275 274 273 271 269 268 266 265 263 260 255 250 246 243 239 236 234 232 229 226 222 218 213 207 202 197 187 175 168 166 165 162 160 161 161 159 158 161 169 185 200 201 182 135 96
311 311 311 311 310 308 307 306 305 306 307 307 305 304 305 306 306 305 305 304 302 302 301 301 300 298 295 293 291 289 288 287 286 284 282 280 278 276 275 273 273 271 270 268 266 264 262 259 255 251 246 242 238 233 230 229 227 223 218 215 211 205 200 195 188 177 167 162 162 162 161 160 159 158 156 155 157 163 175 188 189 173 137 102 79